Time,TemperatureF,DewpointF,PressureIn,WindDirection,WindDirectionDegrees,WindSpeedMPH,WindSpeedGustMPH,Humidity,HourlyPrecipIn,Conditions,Clouds,dailyrainin,SolarRadiationWatts/m^2,SoftwareType,DateUTC
2013-08-09 00:01:00,61.0,34.0,-100.00,East,91,16.0,22.0,36,0.00,,,0.00,0.000000,,2013-08-09 06:01:00,
2013-08-09 00:32:00,60.0,37.0,-100.00,East,100,14.0,21.0,42,0.00,,,0.00,0.000000,,2013-08-09 06:32:00,
2013-08-09 00:43:00,60.0,37.0,-100.00,East,100,14.0,21.0,42,0.00,,,0.00,0.000000,,2013-08-09 06:43:00,
2013-08-09 00:52:00,60.0,37.0,-100.00,East,100,14.0,21.0,42,0.00,,,0.00,0.000000,,2013-08-09 06:52:00,
2013-08-09 01:01:00,60.0,37.0,-100.00,East,100,14.0,21.0,42,0.00,,,0.00,0.000000,,2013-08-09 07:01:00,
2013-08-09 01:33:00,59.0,37.0,-100.00,ESE,106,8.0,16.0,43,0.00,,,0.00,0.000000,,2013-08-09 07:33:00,
2013-08-09 01:43:00,59.0,37.0,-100.00,ESE,106,8.0,16.0,43,0.00,,,0.00,0.000000,,2013-08-09 07:43:00,
2013-08-09 01:53:00,59.0,37.0,-100.00,ESE,106,8.0,16.0,43,0.00,,,0.00,0.000000,,2013-08-09 07:53:00,
2013-08-09 02:02:00,59.0,37.0,-100.00,ESE,106,8.0,16.0,43,0.00,,,0.00,0.000000,,2013-08-09 08:02:00,
2013-08-09 02:43:00,59.0,38.0,-100.00,SSE,148,8.0,12.0,45,0.00,,,0.00,0.000000,,2013-08-09 08:43:00,
2013-08-09 02:53:00,59.0,38.0,-100.00,SSE,148,8.0,12.0,45,0.00,,,0.00,0.000000,,2013-08-09 08:53:00,
2013-08-09 03:02:00,59.0,38.0,-100.00,SSE,148,8.0,12.0,45,0.00,,,0.00,0.000000,,2013-08-09 09:02:00,
2013-08-09 03:32:00,58.0,38.0,-100.00,ESE,108,6.0,12.0,47,0.00,,,0.00,0.000000,,2013-08-09 09:32:00,
2013-08-09 03:43:00,58.0,38.0,-100.00,ESE,108,6.0,12.0,47,0.00,,,0.00,0.000000,,2013-08-09 09:43:00,
2013-08-09 03:52:00,58.0,38.0,-100.00,ESE,108,6.0,12.0,47,0.00,,,0.00,0.000000,,2013-08-09 09:52:00,
2013-08-09 04:01:00,58.0,38.0,-100.00,ESE,108,6.0,12.0,47,0.00,,,0.00,0.000000,,2013-08-09 10:01:00,
2013-08-09 04:32:00,56.0,40.0,-100.00,East,80,6.0,7.0,55,0.00,,,0.00,0.000000,,2013-08-09 10:32:00,
2013-08-09 04:43:00,56.0,40.0,-100.00,East,80,6.0,7.0,55,0.00,,,0.00,0.000000,,2013-08-09 10:43:00,
2013-08-09 04:53:00,56.0,40.0,-100.00,East,80,6.0,7.0,55,0.00,,,0.00,0.000000,,2013-08-09 10:53:00,
2013-08-09 05:01:00,56.0,40.0,-100.00,East,80,6.0,7.0,55,0.00,,,0.00,0.000000,,2013-08-09 11:01:00,
2013-08-09 05:43:00,57.0,39.0,-100.00,SE,126,5.0,8.0,50,0.00,,,0.00,0.000000,,2013-08-09 11:43:00,
2013-08-09 05:53:00,57.0,39.0,-100.00,SE,126,5.0,8.0,50,0.00,,,0.00,0.000000,,2013-08-09 11:53:00,
2013-08-09 06:02:00,57.0,39.0,-100.00,SE,126,5.0,8.0,50,0.00,,,0.00,0.000000,,2013-08-09 12:02:00,
2013-08-09 06:43:00,56.0,39.0,-100.00,SE,144,4.0,6.0,53,0.00,,,0.00,0.000000,,2013-08-09 12:43:00,
2013-08-09 06:52:00,56.0,39.0,-100.00,SE,144,4.0,6.0,53,0.00,,,0.00,0.000000,,2013-08-09 12:52:00,
2013-08-09 07:01:00,56.0,39.0,-100.00,SE,144,4.0,6.0,53,0.00,,,0.00,0.000000,,2013-08-09 13:01:00,
2013-08-09 07:32:00,55.0,40.0,-100.00,SE,141,4.0,6.0,56,0.00,,,0.00,3.000000,,2013-08-09 13:32:00,
2013-08-09 07:43:00,55.0,40.0,-100.00,SE,141,4.0,6.0,56,0.00,,,0.00,3.000000,,2013-08-09 13:43:00,
2013-08-09 07:52:00,55.0,40.0,-100.00,SE,141,4.0,6.0,56,0.00,,,0.00,3.000000,,2013-08-09 13:52:00,
2013-08-09 08:02:00,55.0,40.0,-100.00,SE,141,4.0,6.0,56,0.00,,,0.00,3.000000,,2013-08-09 14:02:00,
2013-08-09 08:43:00,56.0,42.0,-100.00,SE,131,5.0,7.0,59,0.00,,,0.00,20.000000,,2013-08-09 14:43:00,
2013-08-09 08:53:00,56.0,42.0,-100.00,SE,131,5.0,7.0,59,0.00,,,0.00,20.000000,,2013-08-09 14:53:00,
2013-08-09 09:01:00,56.0,42.0,-100.00,SE,131,5.0,7.0,59,0.00,,,0.00,20.000000,,2013-08-09 15:01:00,
2013-08-09 09:44:00,56.0,42.0,-100.00,SE,127,6.0,10.0,59,0.00,,,0.00,153.000000,,2013-08-09 15:44:00,
2013-08-09 09:53:00,56.0,42.0,-100.00,SE,127,6.0,10.0,59,0.00,,,0.00,153.000000,,2013-08-09 15:53:00,
2013-08-09 10:01:00,56.0,42.0,-100.00,SE,127,6.0,10.0,59,0.00,,,0.00,153.000000,,2013-08-09 16:01:00,
2013-08-09 10:43:00,59.0,44.0,-100.00,SE,131,6.0,10.0,57,0.00,,,0.00,363.000000,,2013-08-09 16:43:00,
2013-08-09 10:53:00,59.0,44.0,-100.00,SE,131,6.0,10.0,57,0.00,,,0.00,363.000000,,2013-08-09 16:53:00,
2013-08-09 11:02:00,59.0,44.0,-100.00,SE,131,6.0,10.0,57,0.00,,,0.00,363.000000,,2013-08-09 17:02:00,
2013-08-09 11:33:00,64.0,47.0,-100.00,ESE,123,6.0,9.0,53,0.00,,,0.00,598.000000,,2013-08-09 17:33:00,
2013-08-09 11:43:00,64.0,47.0,-100.00,ESE,123,6.0,9.0,53,0.00,,,0.00,598.000000,,2013-08-09 17:43:00,
2013-08-09 11:52:00,64.0,47.0,-100.00,ESE,123,6.0,9.0,53,0.00,,,0.00,598.000000,,2013-08-09 17:52:00,
2013-08-09 12:01:00,64.0,47.0,-100.00,ESE,123,6.0,9.0,53,0.00,,,0.00,598.000000,,2013-08-09 18:01:00,
2013-08-09 12:32:00,68.0,43.0,-100.00,SE,126,6.0,17.0,40,0.00,,,0.00,749.000000,,2013-08-09 18:32:00,
2013-08-09 12:43:00,68.0,43.0,-100.00,SE,126,6.0,17.0,40,0.00,,,0.00,749.000000,,2013-08-09 18:43:00,
2013-08-09 12:53:00,68.0,43.0,-100.00,SE,126,6.0,17.0,40,0.00,,,0.00,749.000000,,2013-08-09 18:53:00,
2013-08-09 13:02:00,68.0,43.0,-100.00,SE,126,6.0,17.0,40,0.00,,,0.00,749.000000,,2013-08-09 19:02:00,
2013-08-09 13:32:00,65.0,44.0,-100.00,North,354,4.0,12.0,46,0.00,,,0.00,607.000000,,2013-08-09 19:32:00,
2013-08-09 13:43:00,65.0,44.0,-100.00,North,354,4.0,12.0,46,0.00,,,0.00,607.000000,,2013-08-09 19:43:00,
2013-08-09 13:52:00,65.0,44.0,-100.00,North,354,4.0,12.0,46,0.00,,,0.00,607.000000,,2013-08-09 19:52:00,
2013-08-09 14:02:00,65.0,44.0,-100.00,North,354,4.0,12.0,46,0.00,,,0.00,607.000000,,2013-08-09 20:02:00,
2013-08-09 14:32:00,72.0,44.0,-100.00,SSE,150,6.0,12.0,37,0.00,,,0.00,913.000000,,2013-08-09 20:32:00,
2013-08-09 14:43:00,72.0,44.0,-100.00,SSE,150,6.0,12.0,37,0.00,,,0.00,913.000000,,2013-08-09 20:43:00,
2013-08-09 14:52:00,72.0,44.0,-100.00,SSE,150,6.0,12.0,37,0.00,,,0.00,913.000000,,2013-08-09 20:52:00,
2013-08-09 15:01:00,72.0,44.0,-100.00,SSE,150,6.0,12.0,37,0.00,,,0.00,913.000000,,2013-08-09 21:01:00,
2013-08-09 15:43:00,76.0,43.0,-100.00,WNW,298,4.0,12.0,31,0.00,,,0.00,1020.000000,,2013-08-09 21:43:00,
2013-08-09 15:52:00,76.0,43.0,-100.00,WNW,298,4.0,12.0,31,0.00,,,0.00,1020.000000,,2013-08-09 21:52:00,
2013-08-09 16:01:00,76.0,43.0,-100.00,WNW,298,4.0,12.0,31,0.00,,,0.00,1020.000000,,2013-08-09 22:01:00,
2013-08-09 16:32:00,69.0,45.0,-100.00,NNW,345,7.0,13.0,42,0.00,,,0.00,697.000000,,2013-08-09 22:32:00,
2013-08-09 16:42:00,69.0,45.0,-100.00,NNW,345,7.0,13.0,42,0.00,,,0.00,697.000000,,2013-08-09 22:42:00,
2013-08-09 16:52:00,69.0,45.0,-100.00,NNW,345,7.0,13.0,42,0.00,,,0.00,697.000000,,2013-08-09 22:52:00,
2013-08-09 17:01:00,69.0,45.0,-100.00,NNW,345,7.0,13.0,42,0.00,,,0.00,697.000000,,2013-08-09 23:01:00,
2013-08-09 17:43:00,65.0,46.0,-100.00,NNE,30,4.0,14.0,51,0.00,,,0.00,139.000000,,2013-08-09 23:43:00,
2013-08-09 17:52:00,65.0,46.0,-100.00,NNE,30,4.0,14.0,51,0.00,,,0.00,139.000000,,2013-08-09 23:52:00,
2013-08-09 18:01:00,65.0,46.0,-100.00,NNE,30,4.0,14.0,51,0.00,,,0.00,139.000000,,2013-08-10 00:01:00,
2013-08-09 19:01:00,49.0,48.0,-100.00,SSW,201,30.0,51.0,96,0.69,,,0.69,3.000000,,2013-08-10 01:01:00,
2013-08-09 19:32:00,52.0,49.0,-100.00,NNE,23,14.0,30.0,89,0.02,,,0.71,6.000000,,2013-08-10 01:32:00,
2013-08-09 19:42:00,52.0,49.0,-100.00,NNE,23,14.0,30.0,89,0.02,,,0.71,6.000000,,2013-08-10 01:42:00,
2013-08-09 19:52:00,52.0,49.0,-100.00,NNE,23,14.0,30.0,89,0.02,,,0.71,6.000000,,2013-08-10 01:52:00,
2013-08-09 20:03:00,52.0,49.0,-100.00,NNE,23,14.0,30.0,89,0.02,,,0.71,6.000000,,2013-08-10 02:03:00,
2013-08-09 20:32:00,53.0,41.0,-100.00,West,277,9.0,21.0,63,0.00,,,0.71,28.000000,,2013-08-10 02:32:00,
2013-08-09 20:42:00,53.0,41.0,-100.00,West,277,9.0,21.0,63,0.00,,,0.71,28.000000,,2013-08-10 02:42:00,
2013-08-09 20:52:00,53.0,41.0,-100.00,West,277,9.0,21.0,63,0.00,,,0.71,28.000000,,2013-08-10 02:52:00,
2013-08-09 21:01:00,53.0,41.0,-100.00,West,277,9.0,21.0,63,0.00,,,0.71,28.000000,,2013-08-10 03:01:00,
2013-08-09 21:32:00,53.0,41.0,-100.00,West,279,7.0,13.0,63,0.00,,,0.71,12.000000,,2013-08-10 03:32:00,
2013-08-09 21:42:00,53.0,41.0,-100.00,West,279,7.0,13.0,63,0.00,,,0.71,12.000000,,2013-08-10 03:42:00,
2013-08-09 21:52:00,53.0,41.0,-100.00,West,279,7.0,13.0,63,0.00,,,0.71,12.000000,,2013-08-10 03:52:00,
2013-08-09 22:01:00,53.0,41.0,-100.00,West,279,7.0,13.0,63,0.00,,,0.71,12.000000,,2013-08-10 04:01:00,
2013-08-09 22:32:00,56.0,38.0,-100.00,East,94,6.0,9.0,51,0.00,,,0.71,0.000000,,2013-08-10 04:32:00,
2013-08-09 22:43:00,56.0,38.0,-100.00,East,94,6.0,9.0,51,0.00,,,0.71,0.000000,,2013-08-10 04:43:00,
2013-08-09 22:53:00,56.0,38.0,-100.00,East,94,6.0,9.0,51,0.00,,,0.71,0.000000,,2013-08-10 04:53:00,
2013-08-09 23:02:00,56.0,38.0,-100.00,East,94,6.0,9.0,51,0.00,,,0.71,0.000000,,2013-08-10 05:02:00,
2013-08-09 23:43:00,55.0,39.0,-100.00,ESE,118,11.0,12.0,54,0.00,,,0.71,0.000000,,2013-08-10 05:43:00,
2013-08-09 23:52:00,55.0,39.0,-100.00,ESE,118,11.0,12.0,54,0.00,,,0.71,0.000000,,2013-08-10 05:52:00,